Header for Extended Forecast Station List Page

Search by: ID | Name | Date | Parm | Value | Avg | % Avg
Sort by: ID | Name | Date | Parm | Value | Avg | % Avg

Enter search or view all records.

Click on id for station plot
#IDNameDateParmValueAvg% Avg
0HWRI1BIG LOST-AT HOWELL RANCH NEAR CHILLY05-18-2015DISCHARGE (KAF)6014741
1MACI1BIG LOST-MACKAY RESERVOIR NEAR MACKAY05-18-2015INFLOW (KAF)5514638
2HALI1BIG WOOD-AT HAILEY05-18-2015DISCHARGE (KAF)8018942
3MAGI1BIG WOOD-MAGIC DAM05-18-2015INFLOW (KAF)3413825
4BITM8BITTERROOT-NEAR MISSOULA05-18-2015DISCHARGE (KAF)55298356
5BONM8BLACKFOOT-NEAR BONNER05-18-2015DISCHARGE (KAF)29863047
6BIGI1BOISE-AT GLENWOOD BRIDGE05-18-2015DISCHARGE (KAF)30434588
7LUCI1BOISE-LUCKY PEAK DAM05-18-2015INFLOW (KAF)684MM
8PARI1BOISE-NEAR PARMA05-18-2015DISCHARGE (KAF)25530683
9HOTI1BRUNEAU-NEAR HOT SPRINGS05-18-2015DISCHARGE (KAF)2410622
10BULO3BULLY CREEK-BULLY CREEK DAM05-18-2015INFLOW (KAF)0064
11BUDW1BUMPING-BUMPING LAKE DAM05-18-2015INFLOW (KAF)218425
12CHDW1CHELAN-LAKE CHELAN DAM05-18-2015INFLOW (KAF)38483746
13ABOM8CLARK FORK-ABOVE MISSOULA05-18-2015DISCHARGE (KAF)536112947
14DLGM8CLARK FORK-AT DEER LODGE05-18-2015DISCHARGE (KAF)286046
15SRGM8CLARK FORK-AT ST REGIS05-18-2015DISCHARGE (KAF)1400281550
16BELM8CLARK FORK-BELOW MISSOULA05-18-2015DISCHARGE (KAF)1088215251
17CABI1CLARK FORK-CABINET GORGE DAM05-18-2015INFLOW (KAF)3979754453
18NOXM8CLARK FORK-NOXON RAPIDS DAM05-18-2015INFLOW (KAF)3623707251
19DRMM8CLARK FORK-NR DRUMMOND05-18-2015DISCHARGE (KAF)67MM
20CLUW1CLE ELUM-CLE ELUM LAKE05-18-2015INFLOW (KAF)3326712
21ORFI1CLEARWATER-AT OROFINO05-18-2015DISCHARGE (KAF)1411296548
22SPDI1CLEARWATER-AT SPALDING05-18-2015DISCHARGE (KAF)3133437772
23COEI1COEUR D ALENE-COEUR D ALENE LAKE05-18-2015INFLOW (KAF)343112630
24CIBW1COLUMBIA-AT INTL BOUNDARY05-18-2015DISCHARGE (KAF)23169MM
25BONO3COLUMBIA-BONNEVILLE DAM05-18-2015INFLOW (KAF)32996MM
26CHJW1COLUMBIA-CHIEF JOSEPH DAM05-18-2015INFLOW (KAF)206192942770
27GCDW1COLUMBIA-GRAND COULEE DAM05-18-2015INFLOW (KAF)244433922662
28JDAO3COLUMBIA-JOHN DAY DAM05-18-2015INFLOW (KAF)322435639157
29MCDW1COLUMBIA-MCNARY DAM05-18-2015INFLOW (KAF)314515527957
30PRWW1COLUMBIA-PRIEST RAPIDS DAM05-18-2015INFLOW (KAF)227773981357
31RRHW1COLUMBIA-ROCKY REACH DAM05-18-2015INFLOW (KAF)223333227469
32TDAO3COLUMBIA-THE DALLES DAM05-18-2015INFLOW (KAF)325285042265
33WANW1COLUMBIA-WANAPUM DAM05-18-2015INFLOW (KAF)227693893758
34WELW1COLUMBIA-WELLS DAM05-18-2015INFLOW (KAF)216513161568
35DEDI1DEADWOOD-NEAR LOWMAN05-18-2015INFLOW (KAF)3410134
36MODO3DESCHUTES-AT MOODY NR BIGGS05-18-2015DISCHARGE (KAF)1046115591
37ARDW1ENTIAT-NEAR ARDENVOIR05-18-2015DISCHARGE (KAF)8116449
38CHEI1FALL RIVER-NEAR CHESTER05-18-2015DISCHARGE (KAF)9123439
39CFMM8FLATHEAD-AT COLUMBIA FALLS05-18-2015DISCHARGE (KAF)2055331262
40KERM8FLATHEAD-KERR DAM05-18-2015INFLOW (KAF)2341411357
41TRYO3GRANDE RONDE-TROY05-18-2015DISCHARGE (KAF)24670535
42REXI1HENRYS FORK-AT REXBURG05-18-2015DISCHARGE (KAF)29257551
43ANTI1HENRYS FORK-AT ST. ANTHONY05-18-2015DISCHARGE (KAF)20049141
44IPDI1HENRYS FORK-ISLAND PARK DAM05-18-2015INFLOW (KAF)11619061
45HODO3HOOD-NEAR TUCKER BRIDGE05-18-2015DISCHARGE (KAF)8113560
46SERO3JOHN DAY-AT SERVICE CK05-18-2015DISCHARGE (KAF)8831028
47KADW1KACHESS-KACHESS DAM05-18-2015INFLOW (KAF)4607
48LAUW1KETTLE-AT LAURIER05-18-2015DISCHARGE (KAF)692114261
49PITW1KLICKITAT-NEAR PITT05-18-2015DISCHARGE (KAF)21932268
50BFEI1KOOTENAI-AT BONNERS FERRY05-18-2015STAGE (FT)MMM
51LEOI1KOOTENAI-AT LEONIA05-18-2015DISCHARGE (KAF)3319476170
52LYDM8KOOTENAI-LIBBY DAM05-18-2015INFLOW (KAF)3670534069
53LWRI1LITTLE WOOD-LITTLE WOOD DAM05-18-2015INFLOW (KAF)144830
54BERO3MALHEUR-AGENCY VALLEY DAM05-18-2015INFLOW (KAF)101665
55VALO3MALHEUR-NEAR VALE05-18-2015DISCHARGE (KAF)0321
56WRMO3MALHEUR-WARM SPRINGS DAM05-18-2015INFLOW (KAF)4753
57MYKO3MCKAY CREEK-NEAR PILOT ROCK05-18-2015DISCHARGE (KAF)1351
58PATW1METHOW-NEAR PATEROS05-18-2015DISCHARGE (KAF)36266754
59WGCM8MF FLATHEAD-NEAR WEST GLACIER05-18-2015DISCHARGE (KAF)622124950
60CLFW1NACHES-NEAR CLIFFDEL05-18-2015DISCHARGE (KAF)8024932
61NACW1NACHES-NEAR NACHES05-18-2015DISCHARGE (KAF)18136550
62DWRI1NF CLEARWATER-DWORSHAK DAM05-18-2015INFLOW (KAF)673156643
63FCFM8NF FLATHEAD-NEAR COLUMBIA FALLS05-18-2015DISCHARGE (KAF)651129650
64MONO3NF JOHN DAY-AT MONUMENT05-18-2015DISCHARGE (KAF)6222328
65CSDI1NF PAYETTE-CASCADE DAM05-18-2015INFLOW (KAF)10332432
66TONW1OKANOGAN-NEAR TONASKET05-18-2015DISCHARGE (KAF)664118456
67OWYO3OWYHEE-BELOW OWYHEE DAM05-18-2015INFLOW (KAF)2710626
68EMMI1PAYETTE-NEAR EMMETT05-18-2015DISCHARGE (KAF)29289333
69ALFW1PEND OREILLE-ALBENI FALLS DAM05-18-2015INFLOW (KAF)4354847351
70HOPI1PEND OREILLE-PEND OREILLE LAKE NR HOPE05-18-2015LAKE ELEVATION (FT)MMM
71PIHI1PORTNEUF-AT POCATELLO05-18-2015DISCHARGE (KAF)143737
72PRTI1PRIEST-NEAR PRIEST RIVER05-18-2015DISCHARGE (KAF)28751056
73RCCM8ROCK CREEK-NEAR CLINTON05-18-2015DISCHARGE (KAF)14722167
74WHBI1SALMON-AT WHITEBIRD05-18-2015DISCHARGE (KAF)2234470947
75ARAI1SF BOISE-ANDERSON RANCH DAM05-18-2015INFLOW (KAF)11832736
76HHWM8SF FLATHEAD-HUNGRY HORSE DAM05-18-2015INFLOW (KAF)832142159
77PLDI1SF SNAKE-PALISADES DAM05-18-2015INFLOW (KAF)2180281178
78SIFI1SNAKE-AB EAGLE ROCK NR IDAHO FALLS05-18-2015DISCHARGE (KAF)1755219880
79AFRI1SNAKE-AMERICAN FALLS RESERVOIR05-18-2015INFLOW (KAF)1353185073
80SNAI1SNAKE-AT BLACKFOOT05-18-2015DISCHARGE (KAF)864135164
81MILI1SNAKE-AT MILNER05-18-2015DISCHARGE (KAF)142127112
82WEII1SNAKE-AT WEISER05-18-2015DISCHARGE (KAF)2203360161
83SWAI1SNAKE-BELOW SWAN FALLS05-18-2015DISCHARGE (KAF)1455201172
84BRNI1SNAKE-BROWNLEE DAM05-18-2015INFLOW (KAF)2324382461
85IHDW1SNAKE-ICE HARBOR DAM05-18-2015INFLOW (KAF)81181414757
86JLKW4SNAKE-JACKSON LAKE AT DAM05-18-2015INFLOW (KAF)34368750
87LGSW1SNAKE-LITTLE GOOSE DAM05-18-2015INFLOW (KAF)81311417657
88LGDW1SNAKE-LOWER GRANITE DAM05-18-2015INFLOW (KAF)81521415658
89LMNW1SNAKE-LOWER MONUMENTAL DAM05-18-2015INFLOW (KAF)81271420757
90ALPW4SNAKE-NEAR ALPINE05-18-2015DISCHARGE (KAF)1602205678
91ANAW1SNAKE-NEAR ANATONE05-18-2015DISCHARGE (KAF)5019971152
92BFTI1SNAKE-NEAR BLACKFOOT05-18-2015DISCHARGE (KAF)825123467
93HEII1SNAKE-NEAR HEISE05-18-2015DISCHARGE (KAF)2879296097
94JKSW4SNAKE-NEAR JACKSON05-18-2015DISCHARGE (KAF)1341165681
95SHYI1SNAKE-NEAR SHELLEY05-18-2015DISCHARGE (KAF)1491188379
96LLKW1SPOKANE-AT LONGLAKE05-18-2015INFLOW (KAF)544160834
97SPOW1SPOKANE-AT SPOKANE05-18-2015DISCHARGE (KAF)386MM
98SJMI1ST JOE-AT ST MARIES05-18-2015STAGE (FT)MMM
99SATI1ST MARIES-NEAR SANTA05-18-2015DISCHARGE (KAF)145326
100STRM8ST. REGIS-NEAR ST. REGIS05-18-2015DISCHARGE (KAF)4014128
101TNAW1TEANAWAY-BELOW FORKS05-18-2015DISCHARGE (KAF)84717
102TEAI1TETON-NEAR ST. ANTHONY05-18-2015DISCHARGE (KAF)25932181
103RILW1TIETON-RIMROCK LAKE NEAR RIMROCK05-18-2015INFLOW (KAF)7415448
104PDTO3UMATILLA-AT PENDLETON05-18-2015DISCHARGE (KAF)143837
105GIBO3UMATILLA-NEAR GIBBON05-18-2015DISCHARGE (KAF)82631
106UMAO3UMATILLA-NEAR UMATILLA05-18-2015DISCHARGE (KAF)328426
107TCHW1WALLA WALLA-NEAR TOUCHET05-18-2015DISCHARGE (KAF)72824
108WSRI1WEISER-NEAR WEISER05-18-2015DISCHARGE (KAF)6717538
109PESW1WENATCHEE-AT PESHASTIN05-18-2015DISCHARGE (KAF)420109438
110UNDW1WHITE SALMON-NEAR UNDERWOOD05-18-2015DISCHARGE (KAF)14522963
111RIDI1WILLOW CREEK-RIRIE DAM05-18-2015INFLOW (KAF)1917112
112EASW1YAKIMA-AT EASTON05-18-2015DISCHARGE (KAF)10386120
113KIOW1YAKIMA-AT KIONA05-18-2015DISCHARGE (KAF)42760770
114UMTW1YAKIMA-AT UMTANUM05-18-2015DISCHARGE (KAF)46779559
115KEDW1YAKIMA-KEECHELUS LAKE05-18-2015INFLOW (KAF)116716
116PARW1YAKIMA-NEAR PARKER05-18-2015DISCHARGE (KAF)20527176